Tracking 31027 objects as of 19-Jul-2025
HD Live streaming from Space Station
objects crossing your sky now

STARLINK-5783

Track STARLINK-5783 now!
10-day predictions
STARLINK-5783 is classified as:


NORAD ID: 56022
Int'l Code: 2023-042AN
Perigee: 565.2 km
Apogee: 567.2 km
Inclination: 43.0 °
Period: 95.8 minutes
Semi major axis: 6937 km
RCS: Unknown
Launch date: March 24, 2022
Source: United States (US)
Launch site: AIR FORCE EASTERN TEST RANGE (AFETR)
Your satellite tracking list
COSMOS 1408 DEB
Track 1 satellite(s)




NASA's NSSDC Master Catalog

Two Line Element Set (TLE):
1 56022U 23042AN  25199.58090633  .00000027  00000-0  17076-4 0  9990
2 56022  43.0023 235.2385 0001382 276.8542  83.2143 15.02540785127845
Source of the keplerian elements: AFSPC